| time (UTC) | temp F | wind direction | speed MPH | gust MPH | rain 1hr in | rain 24hr in | rain mn in | humidity % | barometer mb |
| 20260510143056 | 69 | 256 | 0.0 | 3.0 | 0.00 | 0.00 | 0.00 | 72 | 1013.0 |
| 20260510142542 | 68 | 244 | 0.0 | 3.0 | 0.00 | 0.00 | 0.00 | 72 | 1013.0 |
| 20260510142041 | 68 | 242 | 0.0 | 1.0 | 0.00 | 0.00 | 0.00 | 73 | 1012.9 |
| 20260510141541 | 68 | 229 | 0.0 | 1.0 | 0.00 | 0.00 | 0.00 | 73 | 1012.8 |
| 20260510141041 | 69 | 236 | 0.0 | 1.0 | 0.00 | 0.00 | 0.00 | 71 | 1012.7 |
| 20260510140541 | 69 | 221 | 0.0 | 1.0 | 0.00 | 0.00 | 0.00 | 71 | 1012.7 |
| 20260510140040 | 70 | 271 | 0.0 | 1.0 | 0.00 | 0.00 | 0.00 | 69 | 1012.7 |
| 20260510135540 | 70 | 250 | 0.0 | 1.0 | 0.00 | 0.00 | 0.00 | 70 | 1012.9 |
| 20260510135040 | 69 | 223 | 0.0 | 1.0 | 0.00 | 0.00 | 0.00 | 69 | 1012.9 |
| 20260510134541 | 69 | 243 | 0.0 | 4.0 | 0.00 | 0.00 | 0.00 | 71 | 1012.9 |
| 20260510134039 | 69 | 221 | 0.0 | 7.0 | 0.00 | 0.00 | 0.00 | 72 | 1012.9 |
| 20260510133539 | 69 | 246 | 2.0 | 9.0 | 0.00 | 0.00 | 0.00 | 70 | 1012.9 |
| 20260510133038 | 70 | 200 | 1.0 | 6.0 | 0.00 | 0.00 | 0.00 | 64 | 1012.9 |
| 20260510132537 | 70 | 302 | 0.0 | 3.0 | 0.00 | 0.00 | 0.00 | 66 | 1012.9 |
| 20260510132035 | 69 | 225 | 0.0 | 5.0 | 0.00 | 0.00 | 0.00 | 68 | 1012.8 |
| 20260510131534 | 69 | 325 | 1.0 | 5.0 | 0.00 | 0.00 | 0.00 | 68 | 1012.9 |
| 20260510131032 | 68 | 338 | 1.0 | 5.0 | 0.00 | 0.00 | 0.00 | 69 | 1012.8 |
| 20260510130533 | 67 | 66 | 0.0 | 5.0 | 0.00 | 0.00 | 0.00 | 70 | 1012.7 |
| 20260510130031 | 67 | 304 | 2.0 | 4.0 | 0.00 | 0.00 | 0.00 | 70 | 1012.9 |
| 20260510125529 | 67 | 340 | 1.0 | 5.0 | 0.00 | 0.00 | 0.00 | 71 | 1012.8 |
| 20260510125028 | 67 | 25 | 2.0 | 5.0 | 0.00 | 0.00 | 0.00 | 72 | 1012.8 |
| 20260510124532 | 66 | 26 | 2.0 | 5.0 | 0.00 | 0.00 | 0.00 | 73 | 1012.7 |
| 20260510124032 | 66 | 355 | 1.0 | 4.0 | 0.00 | 0.00 | 0.00 | 74 | 1012.7 |
| 20260510123526 | 66 | 49 | 2.0 | 4.0 | 0.00 | 0.00 | 0.00 | 75 | 1012.6 |
| 20260510123024 | 65 | 10 | 1.0 | 4.0 | 0.00 | 0.00 | 0.00 | 75 | 1012.6 |
| 20260510122524 | 65 | 328 | 1.0 | 5.0 | 0.00 | 0.00 | 0.00 | 75 | 1012.5 |
| 20260510122023 | 65 | 306 | 1.0 | 5.0 | 0.00 | 0.00 | 0.00 | 75 | 1012.3 |
| 20260510121521 | 65 | 32 | 1.0 | 4.0 | 0.00 | 0.00 | 0.00 | 75 | 1012.1 |
| 20260510121022 | 65 | 328 | 0.0 | 4.0 | 0.00 | 0.00 | 0.00 | 75 | 1012.0 |
| 20260510120521 | 65 | 327 | 0.0 | 3.0 | 0.00 | 0.00 | 0.00 | 77 | 1012.0 |
| 20260510120018 | 64 | 277 | 0.0 | 3.0 | 0.00 | 0.00 | 0.00 | 77 | 1012.0 |
| 20260510115516 | 64 | 301 | 1.0 | 3.0 | 0.00 | 0.00 | 0.00 | 78 | 1012.0 |
| 20260510115018 | 63 | 214 | 0.0 | 3.0 | 0.00 | 0.00 | 0.00 | 80 | 1011.9 |
| 20260510114515 | 63 | 239 | 0.0 | 2.0 | 0.00 | 0.00 | 0.00 | 79 | 1011.9 |
| 20260510114017 | 63 | 225 | 0.0 | 2.0 | 0.00 | 0.00 | 0.00 | 80 | 1011.8 |
| 20260510113512 | 62 | 240 | 0.0 | 2.0 | 0.00 | 0.00 | 0.00 | 80 | 1011.7 |
| 20260510113012 | 62 | 235 | 0.0 | 0.0 | 0.00 | 0.00 | 0.00 | 82 | 1011.6 |
| 20260510112514 | 62 | 265 | 0.0 | 2.0 | 0.00 | 0.00 | 0.00 | 82 | 1011.5 |
| 20260510112009 | 62 | 234 | 0.0 | 2.0 | 0.00 | 0.00 | 0.00 | 83 | 1011.4 |
| 20260510111508 | 61 | 238 | 0.0 | 0.0 | 0.00 | 0.00 | 0.00 | 84 | 1011.3 |
| 20260510111006 | 61 | 221 | 0.0 | 0.0 | 0.00 | 0.00 | 0.00 | 84 | 1011.3 |
| 20260510110506 | 60 | 223 | 0.0 | 0.0 | 0.00 | 0.00 | 0.00 | 85 | 1011.4 |
| 20260510110006 | 60 | 235 | 0.0 | 0.0 | 0.00 | 0.00 | 0.00 | 86 | 1011.3 |
| 20260510105505 | 59 | 210 | 0.0 | 0.0 | 0.00 | 0.00 | 0.00 | 88 | 1011.3 |
| 20260510105006 | 58 | 297 | 0.0 | 3.0 | 0.00 | 0.00 | 0.00 | 89 | 1011.2 |
| 20260510104506 | 58 | 259 | 1.0 | 4.0 | 0.00 | 0.00 | 0.00 | 90 | 1011.2 |
| 20260510104005 | 57 | 311 | 1.0 | 4.0 | 0.00 | 0.00 | 0.00 | 91 | 1011.2 |
| 20260510103505 | 57 | 323 | 0.0 | 3.0 | 0.00 | 0.00 | 0.00 | 91 | 1011.2 |
| 20260510103004 | 56 | 271 | 1.0 | 3.0 | 0.00 | 0.00 | 0.00 | 91 | 1011.1 |
| 20260510102503 | 56 | 178 | 0.0 | 2.0 | 0.00 | 0.00 | 0.00 | 89 | 1011.0 |
| 20260510102003 | 56 | 178 | 0.0 | 2.0 | 0.00 | 0.00 | 0.00 | 88 | 1010.9 |
| 20260510101502 | 57 | 134 | 0.0 | 4.0 | 0.00 | 0.00 | 0.00 | 86 | 1010.8 |
| 20260510101001 | 57 | 134 | 0.0 | 4.0 | 0.00 | 0.00 | 0.00 | 85 | 1010.8 |
| 20260510100501 | 58 | 134 | 0.0 | 2.0 | 0.00 | 0.00 | 0.00 | 83 | 1010.7 |
| 20260510100117 | 59 | 134 | 0.0 | 2.0 | 0.00 | 0.00 | 0.00 | 82 | 1010.7 |
| 20260510100002 | 59 | 134 | 0.0 | 1.0 | 0.00 | 0.00 | 0.00 | 82 | 1010.7 |
| 20260510095600 | 60 | 131 | 0.0 | 0.0 | 0.00 | 0.00 | 0.00 | 82 | 1010.6 |
| 20260510095101 | 60 | 252 | 0.0 | 0.0 | 0.00 | 0.00 | 0.00 | 85 | 1010.6 |
| 20260510094606 | 60 | 309 | 0.0 | 0.0 | 0.00 | 0.00 | 0.00 | 87 | 1010.5 |
| 20260510094100 | 59 | 276 | 0.0 | 0.0 | 0.00 | 0.00 | 0.00 | 90 | 1010.5 |
| 20260510093556 | 58 | 292 | 0.0 | 0.0 | 0.00 | 0.00 | 0.00 | 96 | 1010.5 |
| 20260510093059 | 56 | 301 | 0.0 | 4.0 | 0.00 | 0.00 | 0.00 | 96 | 1010.3 |
| 20260510092552 | 54 | 311 | 1.0 | 4.0 | 0.00 | 0.00 | 0.00 | 96 | 1010.2 |
| 20260510092052 | 52 | 307 | 1.0 | 3.0 | 0.00 | 0.00 | 0.00 | 95 | 1010.2 |
| 20260510091551 | 51 | 211 | 0.0 | 3.0 | 0.00 | 0.00 | 0.00 | 95 | 1010.2 |
| 20260510091050 | 51 | 199 | 0.0 | 3.0 | 0.00 | 0.00 | 0.00 | 95 | 1010.1 |
| 20260510090551 | 50 | 93 | 0.0 | 1.0 | 0.00 | 0.00 | 0.00 | 93 | 1010.0 |
| 20260510090057 | 50 | 93 | 0.0 | 1.0 | 0.00 | 0.00 | 0.00 | 92 | 1009.9 |
| 20260510085550 | 50 | 93 | 0.0 | 1.0 | 0.00 | 0.00 | 0.00 | 92 | 1009.9 |
| 20260510085049 | 50 | 93 | 0.0 | 1.0 | 0.00 | 0.00 | 0.00 | 92 | 1009.9 |
| 20260510084609 | 50 | 93 | 0.0 | 1.0 | 0.00 | 0.00 | 0.00 | 93 | 1009.8 |
| 20260510084052 | 50 | 93 | 0.0 | 2.0 | 0.00 | 0.00 | 0.00 | 92 | 1009.7 |
| 20260510083548 | 50 | 93 | 0.0 | 2.0 | 0.00 | 0.00 | 0.00 | 92 | 1009.8 |
| 20260510083050 | 50 | 93 | 0.0 | 1.0 | 0.00 | 0.00 | 0.00 | 93 | 1009.8 |
| 20260510082547 | 50 | 93 | 0.0 | 1.0 | 0.00 | 0.00 | 0.00 | 92 | 1009.9 |
| 20260510082047 | 50 | 93 | 0.0 | 1.0 | 0.00 | 0.00 | 0.00 | 93 | 1009.9 |
| 20260510081553 | 50 | 93 | 0.0 | 1.0 | 0.00 | 0.00 | 0.00 | 92 | 1009.9 |
| 20260510081047 | 50 | 93 | 0.0 | 1.0 | 0.00 | 0.00 | 0.00 | 92 | 1009.8 |
| 20260510080548 | 50 | 93 | 0.0 | 2.0 | 0.00 | 0.00 | 0.00 | 92 | 1009.9 |
| 20260510080051 | 50 | 93 | 0.0 | 2.0 | 0.00 | 0.00 | 0.00 | 92 | 1009.9 |
| 20260510075547 | 50 | 93 | 0.0 | 1.0 | 0.00 | 0.00 | 0.00 | 92 | 1009.9 |
| 20260510075046 | 50 | 93 | 0.0 | 13.0 | 0.00 | 0.00 | 0.00 | 92 | 1009.9 |
| 20260510074546 | 50 | 93 | 0.0 | 6.0 | 0.00 | 0.00 | 0.00 | 92 | 1009.8 |
| 20260510074046 | 50 | 93 | 0.0 | 6.0 | 0.00 | 0.00 | 0.00 | 92 | 1009.9 |
| 20260510073647 | 50 | 93 | 0.0 | 2.0 | 0.00 | 0.00 | 0.00 | 92 | 1009.9 |
| 20260510073045 | 50 | 93 | 0.0 | 2.0 | 0.00 | 0.00 | 0.00 | 92 | 1009.9 |
| 20260510072545 | 50 | 93 | 0.0 | 19.0 | 0.00 | 0.00 | 0.00 | 92 | 1010.0 |
| 20260510072046 | 50 | 93 | 0.0 | 19.0 | 0.00 | 0.00 | 0.00 | 92 | 1010.0 |
| 20260510071546 | 50 | 93 | 0.0 | 1.0 | 0.00 | 0.00 | 0.00 | 92 | 1009.9 |
| 20260510071043 | 50 | 93 | 0.0 | 1.0 | 0.00 | 0.00 | 0.00 | 92 | 1009.9 |
| 20260510070543 | 50 | 93 | 0.0 | 1.0 | 0.00 | 0.00 | 0.00 | 92 | 1009.8 |
| 20260510070047 | 50 | 93 | 0.0 | 0.0 | 0.00 | 0.00 | 0.00 | 92 | 1009.8 |
| 20260510065543 | 50 | 93 | 0.0 | 0.0 | 0.00 | 0.00 | 0.00 | 92 | 1009.9 |
| 20260510065042 | 50 | 93 | 0.0 | 0.0 | 0.00 | 0.00 | 0.00 | 92 | 1009.9 |
| 20260510064542 | 51 | 93 | 0.0 | 0.0 | 0.00 | 0.00 | 0.00 | 92 | 1010.0 |
| 20260510064041 | 51 | 93 | 0.0 | 0.0 | 0.00 | 0.00 | 0.00 | 92 | 1010.0 |
| 20260510063541 | 51 | 93 | 0.0 | 0.0 | 0.00 | 0.00 | 0.00 | 92 | 1010.0 |
| 20260510063044 | 51 | 93 | 0.0 | 0.0 | 0.00 | 0.00 | 0.00 | 92 | 1010.0 |
| 20260510062540 | 51 | 93 | 0.0 | 0.0 | 0.00 | 0.00 | 0.00 | 91 | 1010.0 |
| 20260510062039 | 51 | 93 | 0.0 | 1.0 | 0.00 | 0.00 | 0.00 | 92 | 1010.1 |
| 20260510061538 | 51 | 93 | 0.0 | 1.0 | 0.00 | 0.00 | 0.00 | 92 | 1010.1 |
| 20260510061040 | 51 | 93 | 0.0 | 0.0 | 0.00 | 0.00 | 0.00 | 92 | 1010.0 |
| 20260510060538 | 51 | 93 | 0.0 | 0.0 | 0.00 | 0.00 | 0.00 | 92 | 1010.0 |
| 20260510060037 | 51 | 93 | 0.0 | 0.0 | 0.00 | 0.00 | 0.00 | 91 | 1010.0 |
| 20260510055536 | 52 | 93 | 0.0 | 0.0 | 0.00 | 0.00 | 0.00 | 92 | 1010.0 |
| 20260510055035 | 52 | 93 | 0.0 | 0.0 | 0.00 | 0.00 | 0.00 | 91 | 1010.1 |
| 20260510054535 | 52 | 93 | 0.0 | 0.0 | 0.00 | 0.00 | 0.00 | 91 | 1010.1 |
| 20260510054033 | 52 | 93 | 0.0 | 0.0 | 0.00 | 0.00 | 0.00 | 92 | 1010.1 |
| 20260510053533 | 52 | 93 | 0.0 | 0.0 | 0.00 | 0.00 | 0.00 | 91 | 1010.1 |
| 20260510053036 | 52 | 93 | 0.0 | 0.0 | 0.00 | 0.00 | 0.00 | 91 | 1010.1 |
| 20260510052531 | 53 | 93 | 0.0 | 1.0 | 0.00 | 0.00 | 0.00 | 91 | 1010.1 |
| 20260510052030 | 53 | 93 | 0.0 | 1.0 | 0.00 | 0.00 | 0.00 | 91 | 1010.2 |
| 20260510051529 | 53 | 93 | 0.0 | 3.0 | 0.00 | 0.00 | 0.00 | 92 | 1010.3 |
| 20260510051029 | 53 | 96 | 0.0 | 3.0 | 0.00 | 0.00 | 0.00 | 92 | 1010.3 |
| 20260510050528 | 53 | 107 | 0.0 | 2.0 | 0.00 | 0.00 | 0.00 | 92 | 1010.3 |
| 20260510050027 | 53 | 91 | 0.0 | 1.0 | 0.00 | 0.00 | 0.00 | 92 | 1010.3 |
| 20260510045526 | 53 | 91 | 0.0 | 1.0 | 0.00 | 0.00 | 0.00 | 91 | 1010.4 |
| 20260510045024 | 53 | 91 | 0.0 | 1.0 | 0.00 | 0.00 | 0.00 | 91 | 1010.4 |
| 20260510044530 | 53 | 91 | 0.0 | 4.0 | 0.00 | 0.00 | 0.00 | 91 | 1010.4 |
| 20260510044022 | 54 | 91 | 0.0 | 4.0 | 0.00 | 0.00 | 0.00 | 91 | 1010.4 |
| 20260510043521 | 54 | 91 | 0.0 | 2.0 | 0.00 | 0.00 | 0.00 | 91 | 1010.3 |
| 20260510043021 | 54 | 91 | 0.0 | 4.0 | 0.00 | 0.00 | 0.00 | 91 | 1010.3 |
| 20260510042519 | 54 | 94 | 0.0 | 2.0 | 0.00 | 0.00 | 0.00 | 91 | 1010.3 |
| 20260510042019 | 54 | 92 | 0.0 | 12.0 | 0.00 | 0.00 | 0.00 | 91 | 1010.3 |
| 20260510041519 | 54 | 92 | 0.0 | 12.0 | 0.00 | 0.00 | 0.00 | 91 | 1010.3 |
| 20260510041018 | 54 | 92 | 0.0 | 2.0 | 0.00 | 0.00 | 0.00 | 92 | 1010.2 |
| 20260510040518 | 54 | 108 | 0.0 | 2.0 | 0.00 | 0.00 | 0.00 | 91 | 1010.3 |
| 20260510040017 | 54 | 86 | 0.0 | 2.0 | 0.00 | 0.00 | 0.00 | 91 | 1010.2 |
| 20260510035516 | 54 | 123 | 1.0 | 2.0 | 0.00 | 0.00 | 0.00 | 91 | 1010.2 |
| 20260510035017 | 54 | 90 | 0.0 | 3.0 | 0.00 | 0.00 | 0.00 | 91 | 1010.2 |
| 20260510034517 | 55 | 100 | 0.0 | 4.0 | 0.00 | 0.00 | 0.00 | 91 | 1010.1 |
| 20260510034016 | 54 | 90 | 0.0 | 6.0 | 0.00 | 0.00 | 0.00 | 91 | 1010.1 |
| 20260510033515 | 54 | 149 | 0.0 | 4.0 | 0.00 | 0.00 | 0.00 | 90 | 1010.1 |
| 20260510033015 | 54 | 102 | 1.0 | 4.0 | 0.00 | 0.00 | 0.00 | 90 | 1010.1 |
| 20260510032515 | 54 | 107 | 0.0 | 3.0 | 0.00 | 0.00 | 0.00 | 90 | 1010.0 |
| 20260510032014 | 55 | 76 | 0.0 | 2.0 | 0.00 | 0.00 | 0.00 | 90 | 1010.0 |
| 20260510031514 | 55 | 70 | 1.0 | 3.0 | 0.00 | 0.00 | 0.00 | 90 | 1010.0 |
| 20260510031013 | 55 | 42 | 0.0 | 3.0 | 0.00 | 0.00 | 0.00 | 90 | 1010.0 |
| 20260510030513 | 55 | 67 | 0.0 | 2.0 | 0.00 | 0.00 | 0.00 | 89 | 1010.0 |
| 20260510030012 | 55 | 71 | 0.0 | 2.0 | 0.00 | 0.00 | 0.00 | 88 | 1010.0 |
| 20260510025513 | 55 | 71 | 0.0 | 3.0 | 0.00 | 0.00 | 0.00 | 88 | 1009.9 |
| 20260510025013 | 55 | 71 | 0.0 | 3.0 | 0.00 | 0.00 | 0.00 | 88 | 1009.8 |
| 20260510024511 | 55 | 77 | 0.0 | 2.0 | 0.00 | 0.00 | 0.00 | 87 | 1009.9 |
| 20260510024011 | 55 | 66 | 0.0 | 1.0 | 0.00 | 0.00 | 0.00 | 87 | 1009.9 |
| 20260510023510 | 55 | 66 | 0.0 | 1.0 | 0.00 | 0.00 | 0.00 | 86 | 1010.0 |
| 20260510023011 | 55 | 66 | 0.0 | 1.0 | 0.00 | 0.00 | 0.00 | 86 | 1009.9 |
| 20260510022514 | 56 | 66 | 0.0 | 1.0 | 0.00 | 0.00 | 0.00 | 86 | 1010.0 |
| 20260510022010 | 56 | 66 | 0.0 | 1.0 | 0.00 | 0.00 | 0.00 | 85 | 1010.1 |
| 20260510021509 | 56 | 66 | 0.0 | 1.0 | 0.00 | 0.00 | 0.00 | 85 | 1010.1 |
| 20260510021010 | 56 | 66 | 0.0 | 2.0 | 0.00 | 0.00 | 0.00 | 85 | 1010.0 |
| 20260510020513 | 56 | 80 | 0.0 | 2.0 | 0.00 | 0.00 | 0.00 | 84 | 1010.0 |
| 20260510020009 | 56 | 71 | 0.0 | 1.0 | 0.00 | 0.00 | 0.00 | 84 | 1010.1 |
| 20260510015509 | 57 | 71 | 0.0 | 2.0 | 0.00 | 0.00 | 0.00 | 83 | 1010.0 |
| 20260510015010 | 57 | 71 | 0.0 | 2.0 | 0.00 | 0.00 | 0.00 | 83 | 1010.0 |
| 20260510014508 | 57 | 64 | 0.0 | 1.0 | 0.00 | 0.00 | 0.00 | 82 | 1009.9 |
| 20260510014008 | 57 | 64 | 0.0 | 2.0 | 0.00 | 0.00 | 0.00 | 82 | 1009.8 |
| 20260510013508 | 58 | 64 | 0.0 | 2.0 | 0.00 | 0.00 | 0.00 | 81 | 1009.8 |
| 20260510013008 | 58 | 64 | 0.0 | 1.0 | 0.00 | 0.00 | 0.00 | 80 | 1009.9 |
| 20260510012507 | 58 | 64 | 0.0 | 1.0 | 0.00 | 0.00 | 0.00 | 80 | 1009.8 |
| 20260510012009 | 59 | 64 | 0.0 | 1.0 | 0.00 | 0.00 | 0.00 | 79 | 1009.9 |
| 20260510011511 | 59 | 64 | 0.0 | 1.0 | 0.00 | 0.00 | 0.00 | 79 | 1009.8 |
| 20260510011006 | 59 | 65 | 0.0 | 1.0 | 0.00 | 0.00 | 0.00 | 79 | 1009.7 |
| 20260510010506 | 59 | 65 | 0.0 | 2.0 | 0.00 | 0.00 | 0.00 | 78 | 1009.7 |
| 20260510010006 | 60 | 61 | 0.0 | 2.0 | 0.00 | 0.00 | 0.00 | 78 | 1009.7 |
| 20260510005506 | 60 | 34 | 0.0 | 2.0 | 0.00 | 0.00 | 0.00 | 77 | 1009.6 |
| 20260510005006 | 60 | 57 | 0.0 | 2.0 | 0.00 | 0.00 | 0.00 | 77 | 1009.6 |
| 20260510004507 | 61 | 57 | 0.0 | 1.0 | 0.00 | 0.00 | 0.00 | 76 | 1009.6 |
| 20260510004005 | 61 | 57 | 0.0 | 0.0 | 0.00 | 0.00 | 0.00 | 76 | 1009.6 |
| 20260510003505 | 61 | 57 | 0.0 | 2.0 | 0.00 | 0.00 | 0.00 | 75 | 1009.7 |
| 20260510003006 | 62 | 57 | 0.0 | 3.0 | 0.00 | 0.00 | 0.00 | 75 | 1009.7 |
| 20260510002506 | 62 | 24 | 0.0 | 4.0 | 0.00 | 0.00 | 0.00 | 75 | 1009.4 |
| 20260510002005 | 62 | 355 | 1.0 | 4.0 | 0.00 | 0.00 | 0.00 | 75 | 1009.4 |
| 20260510001504 | 63 | 61 | 1.0 | 4.0 | 0.00 | 0.00 | 0.00 | 75 | 1009.3 |
| 20260510001108 | 63 | 41 | 0.0 | 4.0 | 0.00 | 0.00 | 0.00 | 74 | 1009.3 |
| 20260510000504 | 64 | 71 | 1.0 | 5.0 | 0.00 | 0.00 | 0.00 | 75 | 1009.3 |
| 20260510000008 | 64 | 61 | 0.0 | 5.0 | 0.00 | 0.00 | 0.00 | 77 | 1009.2 |
| 20260509235507 | 65 | 109 | 0.0 | 2.0 | 0.00 | 0.00 | 0.00 | 77 | 1009.2 |
| 20260509235003 | 65 | 109 | 0.0 | 2.0 | 0.00 | 0.00 | 0.00 | 77 | 1009.1 |
| 20260509234503 | 66 | 109 | 0.0 | 2.0 | 0.00 | 0.00 | 0.00 | 76 | 1009.0 |
| 20260509234005 | 66 | 206 | 0.0 | 1.0 | 0.00 | 0.00 | 0.00 | 75 | 1008.9 |
| 20260509233505 | 67 | 206 | 0.0 | 1.0 | 0.00 | 0.00 | 0.00 | 75 | 1008.8 |
| 20260509233004 | 67 | 206 | 0.0 | 1.0 | 0.00 | 0.00 | 0.00 | 74 | 1008.8 |
| 20260509232503 | 67 | 206 | 0.0 | 0.0 | 0.00 | 0.00 | 0.00 | 74 | 1008.8 |
| 20260509232004 | 67 | 219 | 0.0 | 2.0 | 0.00 | 0.00 | 0.00 | 73 | 1008.8 |
| 20260509231503 | 67 | 215 | 1.0 | 3.0 | 0.00 | 0.00 | 0.00 | 73 | 1008.8 |
| 20260509231002 | 67 | 215 | 1.0 | 7.0 | 0.00 | 0.00 | 0.00 | 73 | 1008.7 |
| 20260509230501 | 67 | 212 | 2.0 | 7.0 | 0.00 | 0.00 | 0.00 | 73 | 1008.6 |
| 20260509230003 | 68 | 214 | 3.0 | 7.0 | 0.00 | 0.00 | 0.00 | 73 | 1008.6 |
| 20260509225501 | 68 | 229 | 3.0 | 7.0 | 0.00 | 0.00 | 0.00 | 72 | 1008.6 |
| 20260509225001 | 68 | 252 | 3.0 | 10.0 | 0.00 | 0.00 | 0.00 | 72 | 1008.7 |
| 20260509224501 | 68 | 225 | 5.0 | 10.0 | 0.00 | 0.00 | 0.00 | 72 | 1008.7 |
| 20260509224001 | 68 | 219 | 2.0 | 6.0 | 0.00 | 0.00 | 0.00 | 72 | 1008.6 |
| 20260509223501 | 68 | 208 | 3.0 | 6.0 | 0.00 | 0.00 | 0.00 | 72 | 1008.7 |
| 20260509223001 | 68 | 208 | 0.0 | 5.0 | 0.00 | 0.00 | 0.00 | 72 | 1008.7 |
| 20260509222601 | 68 | 208 | 0.0 | 4.0 | 0.00 | 0.00 | 0.00 | 72 | 1008.7 |
| 20260509222501 | 68 | 205 | 0.0 | 4.0 | 0.00 | 0.00 | 0.00 | 72 | 1008.7 |
| 20260509222100 | 68 | 259 | 0.0 | 4.0 | 0.00 | 0.00 | 0.00 | 72 | 1008.7 |
| 20260509221600 | 68 | 221 | 0.0 | 2.0 | 0.00 | 0.00 | 0.00 | 72 | 1008.7 |
| 20260509221059 | 68 | 212 | 0.0 | 2.0 | 0.00 | 0.00 | 0.00 | 73 | 1008.8 |
| 20260509220558 | 68 | 213 | 0.0 | 3.0 | 0.00 | 0.00 | 0.00 | 72 | 1008.8 |
| 20260509220100 | 68 | 213 | 0.0 | 12.0 | 0.00 | 0.00 | 0.00 | 72 | 1008.7 |
| 20260509215559 | 68 | 226 | 0.0 | 6.0 | 0.00 | 0.00 | 0.00 | 73 | 1008.6 |
| 20260509215059 | 67 | 210 | 0.0 | 1.0 | 0.00 | 0.00 | 0.00 | 74 | 1008.6 |
| 20260509214602 | 67 | 215 | 0.0 | 7.0 | 0.00 | 0.00 | 0.00 | 73 | 1008.6 |
| 20260509214100 | 67 | 229 | 0.0 | 10.0 | 0.00 | 0.00 | 0.00 | 73 | 1008.6 |
| 20260509213558 | 67 | 217 | 3.0 | 11.0 | 0.00 | 0.00 | 0.00 | 73 | 1008.5 |
| 20260509213058 | 67 | 226 | 2.0 | 10.0 | 0.00 | 0.00 | 0.00 | 73 | 1008.6 |
| 20260509212557 | 67 | 152 | 0.0 | 12.0 | 0.00 | 0.00 | 0.00 | 73 | 1008.6 |
| 20260509212057 | 68 | 215 | 5.0 | 16.0 | 0.00 | 0.00 | 0.00 | 73 | 1008.7 |
| 20260509211557 | 68 | 213 | 8.0 | 16.0 | 0.00 | 0.00 | 0.00 | 72 | 1008.7 |
| 20260509211058 | 68 | 218 | 6.0 | 12.0 | 0.00 | 0.00 | 0.00 | 72 | 1008.7 |
| 20260509210556 | 68 | 238 | 6.0 | 15.0 | 0.00 | 0.00 | 0.00 | 72 | 1008.5 |
| 20260509210106 | 68 | 205 | 8.0 | 15.0 | 0.00 | 0.00 | 0.00 | 71 | 1008.5 |
| 20260509205555 | 68 | 209 | 2.0 | 11.0 | 0.00 | 0.00 | 0.00 | 70 | 1008.5 |
| 20260509205054 | 68 | 238 | 0.0 | 7.0 | 0.00 | 0.00 | 0.00 | 70 | 1008.5 |
| 20260509204557 | 68 | 187 | 0.0 | 16.0 | 0.00 | 0.00 | 0.00 | 69 | 1008.6 |
| 20260509204054 | 69 | 106 | 8.0 | 16.0 | 0.00 | 0.00 | 0.00 | 69 | 1008.7 |
| 20260509203553 | 69 | 222 | 7.0 | 17.0 | 0.00 | 0.00 | 0.00 | 69 | 1008.7 |
| 20260509203052 | 69 | 205 | 9.0 | 17.0 | 0.00 | 0.00 | 0.00 | 68 | 1008.8 |
| 20260509202552 | 69 | 240 | 10.0 | 16.0 | 0.00 | 0.00 | 0.00 | 66 | 1008.8 |
| 20260509202054 | 69 | 218 | 6.0 | 19.0 | 0.00 | 0.00 | 0.00 | 67 | 1008.8 |
| 20260509201550 | 69 | 188 | 12.0 | 19.0 | 0.00 | 0.00 | 0.00 | 66 | 1008.8 |
| 20260509201048 | 69 | 235 | 7.0 | 17.0 | 0.00 | 0.00 | 0.00 | 65 | 1008.9 |
| 20260509200548 | 69 | 229 | 7.0 | 20.0 | 0.00 | 0.00 | 0.00 | 64 | 1009.0 |
| 20260509200103 | 70 | 223 | 4.0 | 19.0 | 0.00 | 0.00 | 0.00 | 65 | 1009.1 |
| 20260509195547 | 69 | 171 | 0.0 | 19.0 | 0.00 | 0.00 | 0.00 | 65 | 1009.0 |
| 20260509195045 | 69 | 232 | 1.0 | 18.0 | 0.00 | 0.00 | 0.00 | 67 | 1009.1 |
| 20260509194545 | 68 | 221 | 3.0 | 19.0 | 0.00 | 0.00 | 0.00 | 67 | 1009.2 |
| 20260509194044 | 69 | 252 | 1.0 | 19.0 | 0.00 | 0.00 | 0.00 | 68 | 1009.3 |
| 20260509193543 | 68 | 219 | 4.0 | 18.0 | 0.00 | 0.00 | 0.00 | 70 | 1009.3 |
| 20260509193043 | 67 | 248 | 6.0 | 18.0 | 0.00 | 0.00 | 0.00 | 71 | 1009.6 |
| 20260509192542 | 67 | 223 | 7.0 | 16.0 | 0.00 | 0.00 | 0.00 | 71 | 1009.6 |
| 20260509192042 | 67 | 211 | 2.0 | 14.0 | 0.00 | 0.00 | 0.00 | 70 | 1009.6 |
| 20260509191542 | 67 | 215 | 2.0 | 15.0 | 0.00 | 0.00 | 0.00 | 70 | 1009.5 |
| 20260509191041 | 66 | 212 | 6.0 | 14.0 | 0.00 | 0.00 | 0.00 | 73 | 1009.7 |
| 20260509190538 | 65 | 213 | 7.0 | 17.0 | 0.00 | 0.00 | 0.00 | 73 | 1009.8 |
| 20260509190038 | 64 | 229 | 8.0 | 17.0 | 0.00 | 0.00 | 0.00 | 74 | 1009.9 |
| 20260509185537 | 64 | 194 | 5.0 | 18.0 | 0.00 | 0.00 | 0.00 | 78 | 1010.0 |
| 20260509185036 | 63 | 224 | 7.0 | 18.0 | 0.00 | 0.00 | 0.00 | 78 | 1010.1 |
| 20260509184553 | 63 | 254 | 10.0 | 18.0 | 0.00 | 0.00 | 0.00 | 76 | 1010.1 |
| 20260509184036 | 63 | 204 | 7.0 | 15.0 | 0.00 | 0.00 | 0.00 | 77 | 1010.1 |
| 20260509183535 | 63 | 215 | 9.0 | 15.0 | 0.00 | 0.00 | 0.00 | 77 | 1010.1 |
| 20260509183035 | 63 | 250 | 9.0 | 19.0 | 0.00 | 0.00 | 0.00 | 78 | 1010.3 |
| 20260509182534 | 64 | 226 | 9.0 | 21.0 | 0.00 | 0.00 | 0.00 | 76 | 1010.3 |
| 20260509182033 | 64 | 215 | 8.0 | 21.0 | 0.00 | 0.00 | 0.00 | 75 | 1010.3 |
| 20260509181536 | 65 | 221 | 9.0 | 22.0 | 0.00 | 0.00 | 0.00 | 74 | 1010.3 |
| 20260509181034 | 65 | 232 | 11.0 | 20.0 | 0.00 | 0.00 | 0.00 | 73 | 1010.3 |
| 20260509180533 | 65 | 244 | 11.0 | 20.0 | 0.00 | 0.00 | 0.00 | 74 | 1010.4 |
| 20260509180032 | 66 | 211 | 8.0 | 21.0 | 0.00 | 0.00 | 0.00 | 74 | 1010.4 |
| 20260509175533 | 66 | 220 | 11.0 | 21.0 | 0.00 | 0.00 | 0.00 | 73 | 1010.5 |
| 20260509175033 | 66 | 234 | 10.0 | 25.0 | 0.00 | 0.00 | 0.00 | 73 | 1010.4 |
| 20260509174535 | 66 | 269 | 15.0 | 25.0 | 0.00 | 0.00 | 0.00 | 72 | 1010.3 |
| 20260509174031 | 67 | 221 | 10.0 | 24.0 | 0.00 | 0.00 | 0.00 | 70 | 1010.3 |
| 20260509173529 | 67 | 239 | 11.0 | 24.0 | 0.00 | 0.00 | 0.00 | 70 | 1010.4 |
| 20260509173029 | 67 | 246 | 9.0 | 23.0 | 0.00 | 0.00 | 0.00 | 69 | 1010.5 |
| 20260509172527 | 67 | 232 | 14.0 | 24.0 | 0.00 | 0.00 | 0.00 | 67 | 1010.6 |
| 20260509172027 | 67 | 214 | 12.0 | 24.0 | 0.00 | 0.00 | 0.00 | 69 | 1010.7 |
| 20260509171532 | 67 | 203 | 12.0 | 22.0 | 0.00 | 0.00 | 0.00 | 69 | 1010.7 |
| 20260509171026 | 68 | 223 | 8.0 | 23.0 | 0.00 | 0.00 | 0.00 | 68 | 1010.9 |
| 20260509170526 | 68 | 250 | 13.0 | 24.0 | 0.00 | 0.00 | 0.00 | 68 | 1011.0 |
| 20260509170025 | 68 | 225 | 11.0 | 26.0 | 0.00 | 0.00 | 0.00 | 64 | 1011.0 |
| 20260509165530 | 68 | 223 | 9.0 | 21.0 | 0.00 | 0.00 | 0.00 | 64 | 1011.0 |
| 20260509165024 | 68 | 211 | 11.0 | 21.0 | 0.00 | 0.00 | 0.00 | 64 | 1011.0 |
| 20260509164524 | 69 | 194 | 10.0 | 18.0 | 0.00 | 0.00 | 0.00 | 66 | 1010.8 |
| 20260509164024 | 70 | 244 | 12.0 | 19.0 | 0.00 | 0.00 | 0.00 | 65 | 1010.8 |
| 20260509163531 | 69 | 227 | 10.0 | 19.0 | 0.00 | 0.00 | 0.00 | 65 | 1010.8 |
| 20260509163025 | 69 | 232 | 8.0 | 18.0 | 0.00 | 0.00 | 0.00 | 64 | 1010.6 |
| 20260509162523 | 70 | 239 | 8.0 | 15.0 | 0.00 | 0.00 | 0.00 | 64 | 1010.8 |
| 20260509162021 | 69 | 184 | 6.0 | 16.0 | 0.00 | 0.00 | 0.00 | 66 | 1010.9 |
| 20260509161522 | 68 | 217 | 7.0 | 16.0 | 0.00 | 0.00 | 0.00 | 67 | 1011.0 |
| 20260509161018 | 68 | 215 | 7.0 | 14.0 | 0.00 | 0.00 | 0.00 | 67 | 1011.2 |
| 20260509160517 | 68 | 221 | 5.0 | 12.0 | 0.00 | 0.00 | 0.00 | 68 | 1011.4 |
| 20260509160020 | 67 | 236 | 6.0 | 14.0 | 0.00 | 0.00 | 0.00 | 66 | 1011.6 |
| 20260509155515 | 67 | 223 | 6.0 | 14.0 | 0.00 | 0.00 | 0.00 | 68 | 1011.7 |
| 20260509155016 | 66 | 229 | 6.0 | 15.0 | 0.00 | 0.00 | 0.00 | 68 | 1011.8 |
| 20260509154516 | 66 | 211 | 8.0 | 15.0 | 0.00 | 0.00 | 0.00 | 69 | 1011.9 |
| 20260509154012 | 66 | 198 | 8.0 | 15.0 | 0.00 | 0.00 | 0.00 | 68 | 1012.0 |
| 20260509153513 | 67 | 190 | 6.0 | 13.0 | 0.00 | 0.00 | 0.00 | 67 | 1012.1 |
| 20260509153028 | 67 | 229 | 7.0 | 12.0 | 0.00 | 0.00 | 0.00 | 66 | 1012.1 |
| 20260509152512 | 67 | 211 | 6.0 | 11.0 | 0.00 | 0.00 | 0.00 | 66 | 1012.1 |
| 20260509152022 | 67 | 197 | 5.0 | 11.0 | 0.00 | 0.00 | 0.00 | 66 | 1012.2 |
| 20260509151510 | 67 | 206 | 5.0 | 16.0 | 0.00 | 0.00 | 0.00 | 66 | 1012.3 |
| 20260509151010 | 67 | 229 | 6.0 | 16.0 | 0.00 | 0.00 | 0.00 | 66 | 1012.3 |
| 20260509150510 | 67 | 205 | 9.0 | 15.0 | 0.00 | 0.00 | 0.00 | 64 | 1012.3 |
| 20260509150011 | 67 | 213 | 6.0 | 14.0 | 0.00 | 0.00 | 0.00 | 64 | 1012.3 |
| 20260509145509 | 67 | 217 | 8.0 | 14.0 | 0.00 | 0.00 | 0.00 | 64 | 1012.3 |
| 20260509145015 | 66 | 186 | 8.0 | 17.0 | 0.00 | 0.00 | 0.00 | 63 | 1012.2 |
| 20260509144522 | 66 | 210 | 7.0 | 17.0 | 0.00 | 0.00 | 0.00 | 65 | 1012.3 |
| 20260509144014 | 66 | 238 | 8.0 | 19.0 | 0.00 | 0.00 | 0.00 | 65 | 1012.2 |
| 20260509143507 | 66 | 228 | 9.0 | 19.0 | 0.00 | 0.00 | 0.00 | 65 | 1012.2 |